Content
SEND FEEDBACK

Daily
Averages
Monthly
Summary
United States of America

CAMP QUEZON, GUAM


Home > North America > United States > Guam
Elevation: 269 feet     Latitude: 13 28N     Longitude: 144 48E

WEATHER
 
SELECT A DAY
Number of Records: 209,044;   Date Range: 1/1/95 - 7/29/14
 
SHARE

PRINT THIS DATA

[ ← Previous Day ]
WEATHER ALMANAC - FEBRUARY 8, 2014
[ Next Day → ]
[ °C ]   °F
Weather ElementAverageHighLow
Temperature79.2 °F86 °F (1:54 pm)73 °F (2:54 am)
Dewpoint67.4 °F69.1 °F (7:54 pm)66 °F (5:54 am)
Humidity68 %82 % (1:54 am)51 % (1:54 pm)
Barometer29.81 in29.86 in (9:54 am)29.75 in (3:54 pm)
Wind Speed9.1 mph15 mph (10:54 am)
Wind Gust19.6 mph (1:54 pm)
Weather ElementAverage
Visibility10 mi
Wind DirectionENE (58.7 °)

Weather ElementTotal
Precipitation---
Cooling Degree Days14.5 (Base 65)
Growing Degree Days29.5 (Base 50)
Averaged from 23 records on February 8, 2014
WEATHER CONDITIONS BREAKOUT
WIND DIRECTION BREAKOUT
WEATHER BY HOUR - FEBRUARY 8, 2014
[ °C ]   °F
Local TimeTemperatureDewpointHumidityBarometerVisibilityWind DirectionWind SpeedGust SpeedPrecipitationEventsConditions
1:54 AM73.9 °F68.0 °F82 %29.79 in10.0 miNE (50°)6.9 mphClear
2:54 AM73.0 °F66.9 °F81 %29.78 in10.0 miNE (50°)5.8 mphClear
3:54 AM73.9 °F68.0 °F82 %29.78 in10.0 miNE (50°)5.8 mphPartly Cloudy
4:54 AM75.0 °F66.9 °F76 %29.79 in10.0 miENE (60°)5.8 mphClear
5:54 AM75.0 °F66.0 °F73 %29.81 in10.0 miENE (60°)6.9 mphClear
6:54 AM75.0 °F68.0 °F79 %29.82 in10.0 miENE (60°)5.8 mphMostly Cloudy
7:54 AM78.1 °F66.9 °F68 %29.84 in10.0 miENE (60°)8.1 mphPartly Cloudy
8:54 AM81.0 °F68.0 °F65 %29.85 in10.0 miENE (60°)11.5 mphClear
9:54 AM82.9 °F66.0 °F56 %29.86 in10.0 miEast (80°)11.5 mphScattered Clouds
10:54 AM84.0 °F66.0 °F55 %29.85 in10.0 miEast (80°)15.0 mphScattered Clouds
11:54 AM84.9 °F66.9 °F55 %29.82 in10.0 miENE (70°)13.8 mphClear
12:54 PM84.0 °F66.0 °F55 %29.80 in10.0 miENE (60°)15.0 mphScattered Clouds
1:54 PM86.0 °F66.0 °F51 %29.77 in10.0 miNE (50°)13.8 mph19.6 mphClear
2:54 PM86.0 °F66.9 °F53 %29.76 in10.0 miENE (60°)15.0 mphClear
3:54 PM84.9 °F66.9 °F55 %29.75 in10.0 miENE (70°)12.7 mphPartly Cloudy
4:54 PM84.0 °F68.0 °F58 %29.76 in10.0 miENE (70°)12.7 mphClear
5:54 PM81.0 °F68.0 °F65 %29.78 in10.0 miENE (60°)10.4 mphClear
6:54 PM78.1 °F68.0 °F71 %29.79 in10.0 miNE (50°)5.8 mphPartly Cloudy
7:54 PM77.0 °F69.1 °F76 %29.81 in10.0 miENE (60°)5.8 mphPartly Cloudy
8:54 PM77.0 °F69.1 °F76 %29.83 in10.0 miNE (50°)6.9 mphPartly Cloudy
9:54 PM75.0 °F69.1 °F82 %29.84 in10.0 miNNE (20°)3.5 mphPartly Cloudy
10:54 PM75.0 °F68.0 °F79 %29.83 in10.0 miENE (60°)4.6 mphPartly Cloudy
11:54 PM77.0 °F66.9 °F71 %29.83 in10.0 miENE (60°)5.8 mphPartly Cloudy
Hourly data recorded from PGUM, located miles away from Camp Quezon, Guam







STORIES FROM OUR PARTNERS